Weather History for Provincetown, MA

Change the Weather History Date:

Wednesday, January 30, 2013

  Actual Average Record
Temperature  
Mean Temperature 42 °F -  
Max Temperature 48 °F 35 °F 48 °F (2001)
Min Temperature 37 °F 25 °F 17 °F (2004)
Degree Days  
Heating Degree Days 24    
Moisture  
Dew Point 39 °F    
Average Humidity 96    
Maximum Humidity 100    
Minimum Humidity 82    
Precipitation  
Precipitation 0.02 in - - ()
Sea Level Pressure  
Sea Level Pressure 30.06 in    
Wind  
Wind Speed 10 mph (SSE)    
Max Wind Speed 16 mph    
Max Gust Speed 25 mph    
Visibility 10 miles    
Events      
Averages and records for this station are not official NWS values.
T = Trace of Precipitation, MM = Missing Value Source: NWS Daily Summary

Daily Weather History Graph

Daily Weather History Graph

Search for Another Location

Airport:

Trip Planner

Search our weather history database for the weather conditions in past years. The results will help you decide how hot, cold, wet, or windy it might be!

Date:

Astronomy

Jan. 30, 2013 Rise Set
Actual Time 6:55 AM EST 4:53 PM EST
Civil Twilight 6:25 AM EST 5:23 PM EST
Nautical Twilight 5:52 AM EST 5:56 PM EST
Astronomical Twilight 5:19 AM EST 6:29 PM EST
Moon 8:53 PM EST (1/30) 8:17 AM EST (1/30)
Length of Visible Light 10h 57m
Length of Day
9h 57m
Waning Gibbous, 88% of the Moon is Illuminated
Jan 30
Waning Gibbous
Feb 3
Last Quarter
Feb 10
New
Feb 17
First Quarter
Feb 25
Full

Hourly Weather History & Observations

Time (EST) Temp. Windchill Dew Point Humidity Pressure Visibility Wind Dir Wind Speed Gust Speed Precip Events Conditions
12:15 AM 37.4 °F 31.4 °F 37.4 °F 100% 30.17 in 10.0 mi SSE 8.1 mph - N/A   Overcast
12:35 AM 37.4 °F 31.4 °F 37.4 °F 100% 30.17 in 10.0 mi South 8.1 mph - N/A   Overcast
12:55 AM 37.4 °F 31.4 °F 37.4 °F 100% 30.16 in 10.0 mi South 8.1 mph - N/A   Overcast
1:15 AM 37.4 °F 32.1 °F 35.6 °F 93% 30.16 in 10.0 mi South 6.9 mph - N/A   Overcast
1:35 AM 37.4 °F 32.1 °F 37.4 °F 100% 30.16 in 10.0 mi South 6.9 mph - N/A   Overcast
1:55 AM 39.2 °F 33.0 °F 37.4 °F 93% 30.16 in 10.0 mi South 9.2 mph - 0.02 in   Overcast
2:35 AM 37.4 °F 30.3 °F 37.4 °F 100% 30.15 in 10.0 mi South 10.4 mph - N/A   Overcast
2:55 AM 37.4 °F 30.8 °F 35.6 °F 93% 30.13 in 10.0 mi SSE 9.2 mph 16.1 mph N/A   Overcast
3:15 AM 37.4 °F 29.8 °F 37.4 °F 100% 30.12 in 10.0 mi South 11.5 mph - N/A   Overcast
3:35 AM 37.4 °F 30.8 °F 37.4 °F 100% 30.10 in 10.0 mi SSE 9.2 mph - N/A   Overcast
3:55 AM 37.4 °F 31.4 °F 37.4 °F 100% 30.09 in 10.0 mi SSE 8.1 mph - N/A   Overcast
4:15 AM 39.2 °F 32.0 °F 37.4 °F 93% 30.08 in 10.0 mi SSE 11.5 mph 16.1 mph N/A   Overcast
4:55 AM 39.2 °F 31.2 °F 39.2 °F 100% 30.05 in 10.0 mi SSE 13.8 mph 20.7 mph N/A   Overcast
5:15 AM 39.2 °F 31.2 °F 39.2 °F 100% 30.05 in 10.0 mi SSE 13.8 mph 20.7 mph N/A   Overcast
5:35 AM 39.2 °F 31.6 °F 39.2 °F 100% 30.04 in 10.0 mi SSE 12.7 mph 20.7 mph N/A   Overcast
5:55 AM 41.0 °F 33.9 °F 39.2 °F 93% 30.04 in 10.0 mi SSE 12.7 mph - N/A   Overcast
6:15 AM 41.0 °F 32.8 °F 39.2 °F 93% 30.03 in 10.0 mi SSE 16.1 mph 20.7 mph N/A   Overcast
6:35 AM 42.8 °F 35.8 °F 41.0 °F 93% 30.02 in 10.0 mi SSE 13.8 mph 21.9 mph N/A   Overcast
7:15 AM 42.8 °F 35.8 °F 41.0 °F 93% 30.01 in 10.0 mi South 13.8 mph 20.7 mph N/A   Overcast
7:35 AM 42.8 °F 35.8 °F 42.8 °F 100% 29.99 in 10.0 mi SSE 13.8 mph 20.7 mph N/A   Overcast
7:55 AM 42.8 °F 35.4 °F 42.8 °F 100% 29.98 in 10.0 mi South 15.0 mph 23.0 mph N/A   Overcast
8:15 AM 44.6 °F 37.8 °F 42.8 °F 93% 29.97 in 10.0 mi South 15.0 mph 25.3 mph N/A   Overcast
8:35 AM 44.6 °F 37.8 °F 44.6 °F 100% 29.96 in 10.0 mi South 15.0 mph 24.2 mph N/A   Overcast
8:55 AM 44.6 °F 38.4 °F 42.8 °F 93% 29.95 in 10.0 mi South 12.7 mph 19.6 mph N/A   Overcast
9:35 AM 46.4 °F 40.1 °F 44.6 °F 93% 29.94 in 10.0 mi South 15.0 mph 21.9 mph N/A   Scattered Clouds
9:55 AM 48.2 °F - 42.8 °F 82% 29.93 in 10.0 mi South 15.0 mph 25.3 mph N/A   Clear